When you browse on this site, cookies collect data to enhance your experience and personalize the content and advertising you see.
Visit our Privacy Policy to learn more. By continuing to use the site, you agree to this use of cookies and data.
  • In Spain
  • List of Countries
  • For 7 days
  • Water Temperature
  • Weather Map
  • Weather Widgets
  • user-avatar
    Login

    Hourly Weather Sada

    Today, 20 September, Friday

    Time Temperature Precipitation Wind Pressure Humidity
    00:00 +19°C° 0 mm 2 mps 570 mmHg 32%
    01:00 +19°C° 0 mm 2 mps 570 mmHg 32%
    02:00 +19°C° 0 mm 1 mps 569 mmHg 31%
    03:00 +19°C° 0 mm 1 mps 569 mmHg 30%
    04:00 +18°C° 0 mm 1 mps 569 mmHg 31%
    05:00 +18°C° 0 mm 1 mps 569 mmHg 32%
    06:00 +18°C° 0 mm 1 mps 569 mmHg 33%
    07:00 +19°C° 0 mm 2 mps 570 mmHg 30%
    08:00 +21°C° 0 mm 3 mps 571 mmHg 26%
    09:00 +24°C° 0 mm 3 mps 572 mmHg 23%
    10:00 +25°C° 0 mm 4 mps 573 mmHg 23%
    11:00 +26°C° 0 mm 4 mps 573 mmHg 22%
    12:00 +27°C° 0 mm 5 mps 573 mmHg 22%
    13:00 +27°C° 0 mm 5 mps 572 mmHg 22%
    14:00 +27°C° 0 mm 4 mps 572 mmHg 21%
    15:00 +27°C° 0 mm 4 mps 571 mmHg 21%
    16:00 +26°C° 0 mm 4 mps 571 mmHg 25%
    17:00 +25°C° 0 mm 4 mps 571 mmHg 30%
    18:00 +24°C° 0 mm 3 mps 571 mmHg 34%
    19:00 +22°C° 0 mm 3 mps 571 mmHg 35%
    20:00 +21°C° 0 mm 3 mps 571 mmHg 36%
    21:00 +21°C° 0 mm 3 mps 571 mmHg 37%
    22:00 +20°C° 0 mm 3 mps 571 mmHg 36%
    23:00 +20°C° 0 mm 3 mps 570 mmHg 35%

    Tomorrow, 21 September, Saturday

    Time Temperature Precipitation Wind Pressure Humidity
    00:00 +20°C° 0 mm 3 mps 570 mmHg 34%
    01:00 +19°C° 0 mm 3 mps 570 mmHg 33%
    02:00 +19°C° 0 mm 3 mps 569 mmHg 32%
    03:00 +18°C° 0 mm 3 mps 569 mmHg 32%
    04:00 +18°C° 0 mm 3 mps 569 mmHg 31%
    05:00 +17°C° 0 mm 3 mps 569 mmHg 31%
    06:00 +17°C° 0 mm 3 mps 569 mmHg 31%
    07:00 +19°C° 0 mm 3 mps 570 mmHg 28%
    08:00 +20°C° 0 mm 3 mps 571 mmHg 25%
    09:00 +22°C° 0 mm 4 mps 572 mmHg 22%
    10:00 +23°C° 0 mm 4 mps 572 mmHg 20%
    11:00 +25°C° 0 mm 4 mps 572 mmHg 18%
    12:00 +26°C° 0 mm 4 mps 573 mmHg 16%
    13:00 +26°C° 0 mm 4 mps 572 mmHg 17%
    14:00 +26°C° 0 mm 4 mps 572 mmHg 19%
    15:00 +27°C° 0 mm 5 mps 571 mmHg 20%
    16:00 +25°C° 0 mm 4 mps 571 mmHg 24%
    17:00 +23°C° 0 mm 4 mps 570 mmHg 27%
    18:00 +22°C° 0 mm 4 mps 570 mmHg 31%
    19:00 +22°C° 0 mm 3 mps 570 mmHg 32%
    20:00 +21°C° 0 mm 3 mps 570 mmHg 34%
    21:00 +20°C° 0 mm 3 mps 570 mmHg 36%
    22:00 +20°C° 0 mm 3 mps 570 mmHg 34%
    23:00 +19°C° 0 mm 2 mps 570 mmHg 33%

    Day after tomorrow, 22 September, Sunday

    Time Temperature Precipitation Wind Pressure Humidity
    00:00 +19°C° 0 mm 2 mps 570 mmHg 31%
    01:00 +18°C° 0 mm 2 mps 569 mmHg 30%
    02:00 +18°C° 0 mm 2 mps 569 mmHg 29%
    03:00 +18°C° 0 mm 1 mps 568 mmHg 28%
    04:00 +18°C° 0 mm 1 mps 568 mmHg 29%
    05:00 +16°C° 0 mm 1 mps 568 mmHg 30%
    06:00 +16°C° 0 mm 1 mps 568 mmHg 31%
    07:00 +19°C° 0 mm 1 mps 570 mmHg 28%
    08:00 +20°C° 0 mm 2 mps 571 mmHg 24%
    09:00 +23°C° 0 mm 2 mps 572 mmHg 21%
    10:00 +24°C° 0 mm 3 mps 572 mmHg 19%
    11:00 +25°C° 0 mm 4 mps 572 mmHg 17%
    12:00 +26°C° 0 mm 5 mps 573 mmHg 15%
    13:00 +26°C° 0 mm 5 mps 572 mmHg 17%
    14:00 +26°C° 0 mm 5 mps 572 mmHg 19%
    15:00 +26°C° 0 mm 5 mps 571 mmHg 20%
    16:00 +25°C° 0 mm 4 mps 571 mmHg 25%
    17:00 +24°C° 0 mm 3 mps 570 mmHg 29%
    18:00 +23°C° 0 mm 2 mps 570 mmHg 34%
    19:00 +21°C° 0 mm 2 mps 570 mmHg 38%
    20:00 +21°C° 0 mm 1 mps 570 mmHg 43%
    21:00 +20°C° 0 mm 1 mps 570 mmHg 47%
    22:00 +20°C° 0 mm 1 mps 570 mmHg 45%
    23:00 +18°C° 0 mm 0 mps 570 mmHg 43%

    23 September, Monday

    Time Temperature Precipitation Wind Pressure Humidity
    00:00 +17°C° 0 mm 0 mps 569 mmHg 40%
    01:00 +17°C° 0 mm 0 mps 569 mmHg 39%
    02:00 +17°C° 0 mm 0 mps 569 mmHg 37%
    03:00 +18°C° 0 mm 1 mps 568 mmHg 36%
    04:00 +18°C° 0 mm 1 mps 568 mmHg 36%
    05:00 +18°C° 0 mm 1 mps 569 mmHg 35%
    06:00 +16°C° 0 mm 1 mps 569 mmHg 35%
    07:00 +19°C° 0 mm 1 mps 570 mmHg 32%
    08:00 +21°C° 0 mm 1 mps 571 mmHg 28%
    09:00 +23°C° 0 mm 2 mps 572 mmHg 24%
    10:00 +24°C° 0 mm 2 mps 572 mmHg 23%
    11:00 +25°C° 0 mm 3 mps 572 mmHg 22%
    12:00 +26°C° 0 mm 4 mps 572 mmHg 21%
    13:00 +26°C° 0 mm 4 mps 572 mmHg 22%
    14:00 +26°C° 0 mm 4 mps 572 mmHg 22%
    15:00 +27°C° 0 mm 4 mps 572 mmHg 22%
    16:00 +25°C° 0 mm 4 mps 571 mmHg 27%
    17:00 +24°C° 0 mm 3 mps 570 mmHg 32%
    18:00 +22°C° 0 mm 3 mps 570 mmHg 37%
    19:00 +21°C° 0 mm 3 mps 570 mmHg 41%
    20:00 +20°C° 0 mm 2 mps 570 mmHg 46%
    21:00 +21°C° 0 mm 1 mps 570 mmHg 50%
    22:00 +20°C° 0 mm 1 mps 570 mmHg 48%
    23:00 +20°C° 0 mm 1 mps 570 mmHg 46%

    24 September, Tuesday

    Time Temperature Precipitation Wind Pressure Humidity
    00:00 +20°C° 0 mm 1 mps 570 mmHg 44%
    01:00 +20°C° 0 mm 1 mps 570 mmHg 41%
    02:00 +19°C° 0 mm 1 mps 569 mmHg 37%
    03:00 +18°C° 0 mm 2 mps 569 mmHg 34%
    04:00 +17°C° 0 mm 2 mps 569 mmHg 34%
    05:00 +17°C° 0 mm 2 mps 569 mmHg 35%
    06:00 +16°C° 0 mm 2 mps 569 mmHg 36%
    07:00 +18°C° 0 mm 2 mps 570 mmHg 34%
    08:00 +20°C° 0 mm 2 mps 571 mmHg 32%
    09:00 +21°C° 0 mm 2 mps 572 mmHg 30%
    10:00 +23°C° 0 mm 2 mps 572 mmHg 28%
    11:00 +24°C° 0 mm 3 mps 572 mmHg 25%
    12:00 +25°C° 0 mm 3 mps 572 mmHg 23%
    13:00 +26°C° 0 mm 3 mps 572 mmHg 24%
    14:00 +26°C° 0 mm 4 mps 571 mmHg 24%
    15:00 +26°C° 0 mm 4 mps 571 mmHg 25%
    16:00 +25°C° 0 mm 3 mps 570 mmHg 30%
    17:00 +24°C° 0 mm 3 mps 570 mmHg 35%
    18:00 +21°C° 0 mm 3 mps 570 mmHg 40%
    19:00 +21°C° 0 mm 3 mps 570 mmHg 38%
    20:00 +20°C° 0 mm 3 mps 570 mmHg 37%
    21:00 +20°C° 0 mm 2 mps 570 mmHg 35%
    22:00 +19°C° 0 mm 3 mps 570 mmHg 35%
    23:00 +19°C° 0 mm 3 mps 570 mmHg 35%

    25 September, Wednesday

    Time Temperature Precipitation Wind Pressure Humidity
    00:00 +19°C° 0 mm 3 mps 570 mmHg 35%
    01:00 +18°C° 0 mm 3 mps 569 mmHg 35%
    02:00 +18°C° 0 mm 3 mps 569 mmHg 36%
    03:00 +17°C° 0 mm 3 mps 568 mmHg 37%
    04:00 +17°C° 0 mm 3 mps 569 mmHg 38%
    05:00 +17°C° 0 mm 3 mps 569 mmHg 40%
    06:00 +16°C° 0 mm 3 mps 569 mmHg 42%
    07:00 +18°C° 0 mm 4 mps 570 mmHg 38%
    08:00 +20°C° 0 mm 5 mps 571 mmHg 34%
    09:00 +21°C° 0 mm 6 mps 572 mmHg 30%
    10:00 +23°C° 0 mm 6 mps 572 mmHg 27%
    11:00 +24°C° 0 mm 6 mps 572 mmHg 24%
    12:00 +26°C° 0 mm 6 mps 572 mmHg 22%
    13:00 +26°C° 0 mm 6 mps 572 mmHg 23%
    14:00 +26°C° 0 mm 5 mps 571 mmHg 25%
    15:00 +26°C° 0 mm 5 mps 571 mmHg 26%
    16:00 +25°C° 0.1 mm 5 mps 571 mmHg 30%
    17:00 +23°C° 0.1 mm 5 mps 571 mmHg 34%
    18:00 +22°C° 0.1 mm 5 mps 570 mmHg 38%
    19:00 +21°C° 0 mm 5 mps 571 mmHg 40%
    20:00 +20°C° 0 mm 5 mps 571 mmHg 41%
    21:00 +20°C° 0 mm 5 mps 571 mmHg 43%
    22:00 +19°C° 0 mm 4 mps 571 mmHg 43%
    23:00 +19°C° 0 mm 4 mps 571 mmHg 42%
    Show more